Zurück zum Katalog

WARATAH SEED-1

AktivWissenschaftSSO
NORAD 60469·PAYLOAD·🇦🇺 Australia

Gestartet Aug 16, 2024 von Vandenberg Space Force Base

Loading…

Nächste Überflüge (nächste 24 Stunden)

TLE

AktuellSource: Space-Track

Epoche: Sep 13, 2026, 17:15 UTC

1 60469U 24149B   26256.71921512  .00010194  00000-0  27522-3 0  9990
2 60469  97.3635 337.4780 0000279 233.7165 126.4055 15.37958518115717

Verfolge WARATAH SEED-1 in Echtzeit mit AllMySat

Download on the App Store